CAPE
0 0 0 0 0 0 0 0 0 0 0 0 0 0 0 0 0 0 0 0 0 0 0 0 0 0 0 0 0 0 0 0 0 0 0 0 0 0 0 0 0 0 0 0 0
0 0 0 0 0 0 0 0 0 0 0 0 0 0 0 0 0 0 0 0 0 0 0 0 0 0 0 0 0 0 0 0 0 0 0 0 0 0 0 0 0 0 0 0 413
0 0 0 0 0 0 0 0 0 0 0 0 0 0 0 0 0 0 0 0 0 0 0 0 0 0 0 0 0 0 0 0 0 0 0 0 0 0 0 0 0 0 0 7 243
0 0 0 0 0 0 0 0 0 0 0 0 0 0 0 0 0 0 0 0 0 0 0 0 0 0 0 0 0 0 0 0 0 0 0 0 0 0 0 0 0 0 0 0 0
0 0 0 0 0 0 0 0 0 0 0 0 0 0 0 0 0 0 0 0 0 0 0 0 0 0 0 0 0 0 0 0 0 0 0 0 0 0 0 0 0 0 0 0 0
0 0 0 0 0 0 0 0 0 0 0 0 0 0 0 0 0 0 0 0 0 0 0 0 0 0 0 0 0 0 0 0 0 0 0 0 0 0 0 0 0 0 0 0 0
0 0 0 0 0 0 0 0 0 0 0 0 0 0 0 0 0 0 0 0 0 0 0 0 0 0 0 0 0 0 0 0 0 0 0 0 0 0 0 0 0 0 0 0 0
0 0 0 0 0 0 0 0 0 0 0 0 0 0 0 0 0 0 0 0 0 0 0 0 0 0 0 0 0 0 0 0 0 0 0 0 0 0 0 0 0 0 0 0 0
0 0 0 0 0 0 0 0 0 0 0 0 0 0 0 0 0 0 0 0 0 0 0 0 0 0 0 0 0 0 0 0 0 0 0 0 0 0 0 0 0 0 0 0 0
0 0 0 0 0 0 0 0 0 0 0 0 0 0 0 0 0 0 0 0 0 0 0 0 0 0 0 0 0 0 0 0 0 0 0 0 0 0 0 0 0 0 0 0 0
0 0 0 0 0 0 0 0 0 0 0 0 0 0 0 0 0 0 0 0 0 0 0 0 0 0 0 0 0 0 0 0 0 0 0 0 0 0 0 0 0 0 0 0 0
0 0 0 0 0 0 0 0 0 0 0 0 0 0 0 0 0 0 0 0 0 0 0 0 0 0 0 0 0 0 0 0 0 0 0 0 0 0 0 0 0 0 0 0 0
0 0 0 0 0 0 0 0 0 0 0 0 0 0 0 0 0 0 0 0 0 0 0 0 0 0 0 0 0 0 0 0 0 0 0 0 0 0 0 0 0 0 0 0 0
0 0 0 0 0 0 0 0 0 0 0 0 0 0 0 0 0 0 0 0 0 0 0 0 0 0 0 0 0 0 0 0 0 0 0 0 0 0 0 0 0 0 0 0 0
0 0 0 0 0 0 0 0 0 0 0 0 0 0 0 0 0 0 0 0 0 0 0 0 0 0 0 0 0 0 0 0 0 0 0 0 0 0 0 0 0 0 0 0 0
0 0 0 0 0 0 0 0 0 0 0 0 0 0 0 0 0 0 0 0 0 0 0 0 0 0 0 0 0 0 0 0 0 0 0 0 0 0 0 0 0 0 0 0 0
0 0 0 0 0 0 0 0 0 0 0 0 0 0 0 0 0 0 0 0 0 0 0 0 0 0 0 0 0 0 0 0 0 0 0 0 0 0 0 0 0 0 0 0 0
0 0 0 0 0 0 0 0 0 0 0 0 0 0 0 0 0 0 0 0 0 0 0 0 0 0 0 0 0 0 0 0 0 0 0 0 0 0 0 0 0 0 0 0 0
0 0 0 0 0 0 0 0 0 0 0 0 0 0 0 0 0 0 0 0 0 0 0 0 0 0 0 0 0 0 0 0 0 0 0 0 0 0 0 0 0 0 0 0 0
0 0 0 0 0 0 0 0 0 0 0 0 0 0 0 0 0 0 0 0 0 0 0 0 0 0 0 0 0 0 0 0 0 0 0 0 0 0 0 0 0 0 0 0 0
0 0 0 0 0 0 0 0 0 0 0 0 0 0 0 0 0 0 0 0 0 0 0 0 0 0 0 0 0 0 0 0 0 0 0 0 0 0 0 0 0 0 0 0 0
0 0 0 0 0 0 0 0 0 0 0 0 0 0 0 0 0 0 0 0 0 0 0 0 0 0 0 0 0 0 0 0 0 0 0 0 0 0 0 0 0 0 0 0 0
0 0 0 0 0 0 0 0 0 0 0 0 0 0 0 0 0 0 0 0 0 0 0 0 0 0 0 0 0 0 0 0 0 0 0 0 0 0 0 0 0 0 0 0 0
0 0 0 0 0 0 0 0 0 0 0 0 0 0 0 0 0 0 0 0 0 0 0 0 0 0 0 0 0 0 0 0 0 0 0 0 0 0 0 0 0 0 0 0 0
0 0 0 0 0 0 0 0 0 0 0 0 0 0 0 0 0 0 0 0 0 0 0 0 0 0 0 0 0 0 0 0 0 0 0 0 0 0 0 0 0 0 0 0 0
0 0 0 0 0 0 0 0 0 0 0 0 0 0 0 0 0 0 0 0 0 0 0 0 0 0 0 0 0 0 0 0 0 0 0 0 0 0 0 0 0 0 0 0 0
0 0 0 0 0 0 0 0 0 0 0 0 0 0 0 0 0 0 0 0 0 0 0 0 0 0 0 0 0 0 0 0 0 0 0 0 0 0 0 0 0 0 0 0 0
CIN
0 0 0 0 0 0 0 0 0 0 0 0 0 0 0 0 0 0 0 0 0 0 0 0 0 0 0 0 0 0 0 0 0 0 0 0 0 0 0 0 0 0 0 0 0
0 0 0 0 0 0 0 0 0 0 0 0 0 0 0 0 0 0 0 0 0 0 0 0 0 0 0 0 0 0 0 0 0 0 0 0 0 0 0 0 0 0 0 0 -318
0 0 0 0 0 0 0 0 0 0 0 0 0 0 0 0 0 0 0 0 0 0 0 0 0 0 0 0 0 0 0 0 0 0 0 0 0 0 0 0 0 0 0 -249 -257
0 0 0 0 0 0 0 0 0 0 0 0 0 0 0 0 0 0 0 0 0 0 0 0 0 0 0 0 0 0 0 0 0 0 0 0 0 0 0 0 0 0 0 0 0
0 0 0 0 0 0 0 0 0 0 0 0 0 0 0 0 0 0 0 0 0 0 0 0 0 0 0 0 0 0 0 0 0 0 0 0 0 0 0 0 0 0 0 0 0
0 0 0 0 0 0 0 0 0 0 0 0 0 0 0 0 0 0 0 0 0 0 0 0 0 0 0 0 0 0 0 0 0 0 0 0 0 0 0 0 0 0 0 0 0
0 0 0 0 0 0 0 0 0 0 0 0 0 0 0 0 0 0 0 0 0 0 0 0 0 0 0 0 0 0 0 0 0 0 0 0 0 0 0 0 0 0 0 0 0
0 0 0 0 0 0 0 0 0 0 0 0 0 0 0 0 0 0 0 0 0 0 0 0 0 0 0 0 0 0 0 0 0 0 0 0 0 0 0 0 0 0 0 0 0
0 0 0 0 0 0 0 0 0 0 0 0 0 0 0 0 0 0 0 0 0 0 0 0 0 0 0 0 0 0 0 0 0 0 0 0 0 0 0 0 0 0 0 0 0
0 0 0 0 0 0 0 0 0 0 0 0 0 0 0 0 0 0 0 0 0 0 0 0 0 0 0 0 0 0 0 0 0 0 0 0 0 0 0 0 0 0 0 0 0
0 0 0 0 0 0 0 0 0 0 0 0 0 0 0 0 0 0 0 0 0 0 0 0 0 0 0 0 0 0 0 0 0 0 0 0 0 0 0 0 0 0 0 0 0
0 0 0 0 0 0 0 0 0 0 0 0 0 0 0 0 0 0 0 0 0 0 0 0 0 0 0 0 0 0 0 0 0 0 0 0 0 0 0 0 0 0 0 0 0
0 0 0 0 0 0 0 0 0 0 0 0 0 0 0 0 0 0 0 0 0 0 0 0 0 0 0 0 0 0 0 0 0 0 0 0 0 0 0 0 0 0 0 0 0
0 0 0 0 0 0 0 0 0 0 0 0 0 0 0 0 0 0 0 0 0 0 0 0 0 0 0 0 0 0 0 0 0 0 0 0 0 0 0 0 0 0 0 0 0
0 0 0 0 0 0 0 0 0 0 0 0 0 0 0 0 0 0 0 0 0 0 0 0 0 0 0 0 0 0 0 0 0 0 0 0 0 0 0 0 0 0 0 0 0
0 0 0 0 0 0 0 0 0 0 0 0 0 0 0 0 0 0 0 0 0 0 0 0 0 0 0 0 0 0 0 0 0 0 0 0 0 0 0 0 0 0 0 0 0
0 0 0 0 0 0 0 0 0 0 0 0 0 0 0 0 0 0 0 0 0 0 0 0 0 0 0 0 0 0 0 0 0 0 0 0 0 0 0 0 0 0 0 0 0
0 0 0 0 0 0 0 0 0 0 0 0 0 0 0 0 0 0 0 0 0 0 0 0 0 0 0 0 0 0 0 0 0 0 0 0 0 0 0 0 0 0 0 0 0
0 0 0 0 0 0 0 0 0 0 0 0 0 0 0 0 0 0 0 0 0 0 0 0 0 0 0 0 0 0 0 0 0 0 0 0 0 0 0 0 0 0 0 0 0
0 0 0 0 0 0 0 0 0 0 0 0 0 0 0 0 0 0 0 0 0 0 0 0 0 0 0 0 0 0 0 0 0 0 0 0 0 0 0 0 0 0 0 0 0
0 0 0 0 0 0 0 0 0 0 0 0 0 0 0 0 0 0 0 0 0 0 0 0 0 0 0 0 0 0 0 0 0 0 0 0 0 0 0 0 0 0 0 0 0
0 0 0 0 0 0 0 0 0 0 0 0 0 0 0 0 0 0 0 0 0 0 0 0 0 0 0 0 0 0 0 0 0 0 0 0 0 0 0 0 0 0 0 0 0
0 0 0 0 0 0 0 0 0 0 0 0 0 0 0 0 0 0 0 0 0 0 0 0 0 0 0 0 0 0 0 0 0 0 0 0 0 0 0 0 0 0 0 0 0
0 0 0 0 0 0 0 0 0 0 0 0 0 0 0 0 0 0 0 0 0 0 0 0 0 0 0 0 0 0 0 0 0 0 0 0 0 0 0 0 0 0 0 0 0
0 0 0 0 0 0 0 0 0 0 0 0 0 0 0 0 0 0 0 0 0 0 0 0 0 0 0 0 0 0 0 0 0 0 0 0 0 0 0 0 0 0 0 0 0
0 0 0 0 0 0 0 0 0 0 0 0 0 0 0 0 0 0 0 0 0 0 0 0 0 0 0 0 0 0 0 0 0 0 0 0 0 0 0 0 0 0 0 0 0
0 0 0 0 0 0 0 0 0 0 0 0 0 0 0 0 0 0 0 0 0 0 0 0 0 0 0 0 0 0 0 0 0 0 0 0 0 0 0 0 0 0 0 0 0
Wind_Speed
14 14 13 14 14 14 14 15 16 16 16 16 16 17 18 20 20 17 16 14 14 15 13 14 17 15 16 13 12 12 11 11 12 10 8 7 7 11 12 11 14 15 14 16 16
14 14 14 13 14 14 14 15 15 15 16 16 17 18 20 21 16 16 14 13 14 15 17 13 10 16 18 18 14 12 11 8 10 8 8 8 8 10 12 12 14 14 15 15 16
13 13 13 13 14 14 14 15 15 16 16 17 18 20 20 17 14 14 14 13 15 16 16 15 15 15 15 17 17 15 14 11 8 10 10 10 11 12 9 11 9 9 11 12 13
12 12 12 13 13 14 14 15 15 16 16 17 18 19 18 15 12 14 14 14 15 15 14 13 14 13 12 13 15 14 12 10 10 11 12 12 12 8 13 11 7 9 11 11 12
12 12 12 13 13 14 14 14 15 15 16 16 17 18 15 14 12 14 15 15 15 15 16 15 16 14 12 12 12 10 11 10 11 13 12 12 13 12 15 19 9 7 8 9 11
14 13 13 13 14 14 14 15 15 16 16 17 17 17 15 13 14 15 15 16 16 15 15 15 15 14 14 13 12 12 10 12 15 13 12 12 12 14 20 19 9 6 6 9 11
14 14 14 14 14 15 15 15 16 17 17 17 17 18 16 14 16 18 17 17 16 14 15 15 14 14 12 12 14 12 11 15 20 14 13 13 13 15 22 20 8 6 7 9 11
13 13 14 15 16 16 17 17 17 17 18 17 18 17 17 16 18 19 18 17 15 15 15 14 15 13 14 14 15 13 14 14 18 14 16 14 12 22 26 23 13 7 8 8 8
13 13 14 14 15 16 17 18 18 17 16 17 16 17 16 20 17 18 15 16 19 15 17 14 14 11 14 13 14 16 12 14 14 18 14 15 18 28 29 26 14 10 8 7 9
14 14 14 14 14 15 17 16 15 15 15 15 16 16 16 19 18 18 15 15 17 19 16 16 14 10 13 13 11 11 12 14 15 20 18 17 22 28 30 26 15 9 8 8 10
17 16 15 14 14 16 17 16 18 17 16 14 15 15 15 19 17 16 16 16 17 16 16 15 13 11 11 11 9 11 12 15 16 21 19 20 23 27 28 23 15 11 9 10 11
18 16 15 16 16 17 19 19 19 17 19 14 11 11 12 15 16 18 15 17 17 18 16 14 14 11 11 9 10 13 15 20 19 22 18 19 23 24 24 21 16 13 11 11 12
20 19 18 18 17 19 19 21 21 15 17 17 14 13 13 13 15 16 15 17 15 17 17 14 15 10 9 11 14 17 18 19 20 21 19 17 23 22 21 18 17 15 13 13 12
22 20 20 19 17 20 19 23 22 15 18 17 16 16 13 13 15 14 16 16 16 16 15 15 15 11 12 15 17 19 18 19 21 22 22 20 25 21 17 16 15 13 13 13 13
24 21 20 17 17 19 22 24 17 16 16 16 16 16 15 14 14 16 16 17 15 15 15 17 16 17 18 18 17 18 18 22 23 22 21 21 22 17 14 15 13 12 13 14 15
25 22 18 16 18 18 25 20 17 17 17 16 16 16 14 14 15 16 15 16 16 15 16 17 16 17 15 16 17 16 21 23 21 21 21 18 23 20 15 13 13 13 13 16 18
24 21 15 16 19 23 24 17 17 17 18 18 17 16 13 15 16 14 16 16 16 18 16 18 17 16 15 17 19 20 24 28 24 23 22 18 24 23 14 14 13 12 15 18 20
23 18 16 18 22 23 20 16 17 17 17 18 19 17 15 20 18 17 15 15 18 17 17 17 17 18 20 19 21 22 20 20 25 24 25 24 23 23 17 15 15 16 17 20 24
21 17 18 22 22 21 18 17 16 16 18 20 18 18 17 19 21 19 18 16 17 18 17 18 18 17 19 20 21 20 21 19 21 23 26 22 23 21 19 16 16 18 21 23 25
20 17 21 25 21 21 17 16 15 16 18 18 18 18 21 22 23 21 19 18 17 18 16 16 18 19 20 20 22 21 17 22 23 26 29 26 26 25 23 17 21 21 22 24 26
19 17 24 24 20 20 17 17 16 18 18 19 18 20 21 22 23 21 19 19 19 19 16 17 19 21 22 25 27 26 23 23 21 22 27 33 27 22 24 24 25 20 23 24 26
20 19 25 21 21 20 19 19 18 17 19 18 17 19 20 22 22 21 19 20 22 19 20 20 19 24 24 25 20 18 20 21 24 26 25 28 31 25 23 26 25 23 23 24 25
22 21 22 20 21 21 21 19 18 19 19 18 17 19 19 21 22 19 18 19 20 18 18 18 22 26 23 21 20 21 21 22 23 24 25 28 30 25 26 26 24 24 25 26 27
21 22 22 20 19 20 22 21 22 21 18 18 18 18 20 20 20 19 19 21 19 17 17 18 20 20 22 24 23 26 25 26 23 26 27 27 32 29 24 24 25 26 28 29 30
22 20 20 24 23 23 22 21 22 21 20 19 19 19 18 19 20 19 19 18 19 19 19 20 23 21 23 24 25 26 26 22 23 22 26 29 31 30 23 24 26 27 30 32 32
22 22 22 23 24 23 23 21 22 22 20 20 19 18 18 18 17 19 18 19 19 18 20 20 23 22 26 25 22 24 25 24 20 20 22 28 30 23 23 24 28 30 33 36 36
21 21 22 23 24 25 23 23 22 24 19 19 16 17 20 20 17 18 17 19 20 19 17 18 18 21 24 22 26 26 18 20 22 20 25 30 27 26 28 30 32 34 36 39 36
Wind_Direction
264 255 243 258 266 270 276 280 278 269 264 263 267 274 283 290 307 336 323 359 19 43 128 131 100 179 105 49 340 322 332 312 309 323 340 333 342 336 350 14 23 11 37 45 42
265 262 255 246 249 257 264 267 267 268 270 273 277 283 289 297 340 338 344 22 55 38 39 281 225 115 101 104 56 38 34 18 328 346 350 351 1 345 331 345 1 29 39 46 58
259 256 257 257 256 257 261 265 271 275 280 284 287 291 291 328 354 332 337 20 27 16 7 53 69 60 67 118 112 89 69 48 358 327 342 348 336 341 18 342 9 53 62 53 56
256 252 244 239 243 251 257 265 273 277 281 284 288 292 294 331 1 316 318 342 351 317 303 347 16 30 43 59 133 75 61 38 11 339 324 331 349 29 358 359 20 82 83 68 74
265 260 251 244 243 246 247 248 251 257 265 276 285 296 335 350 3 316 300 348 338 331 349 15 1 18 25 36 50 43 49 11 350 351 351 343 339 351 344 331 19 83 65 68 51
292 276 257 250 250 248 246 244 243 248 261 275 286 295 336 5 305 304 292 289 310 336 338 355 359 17 24 22 17 23 28 350 332 343 353 353 350 0 325 322 15 69 45 17 19
292 290 286 272 258 254 251 247 242 244 254 270 292 323 352 358 297 285 300 312 311 337 336 338 359 4 17 6 344 7 4 347 314 325 336 347 347 349 312 341 20 47 26 6 4
286 280 278 276 277 273 265 258 250 247 257 285 312 347 350 329 292 289 310 311 336 338 340 339 337 357 354 354 340 342 345 349 328 322 314 325 331 312 312 331 9 24 11 19 35
285 271 264 263 265 268 265 260 247 286 327 325 344 349 348 300 335 326 341 328 305 331 332 342 333 342 344 344 339 335 351 349 349 336 333 330 321 305 310 317 347 360 12 37 33
295 278 268 264 265 272 273 272 356 360 357 358 354 355 349 336 334 332 348 338 336 317 332 334 338 335 332 338 333 340 344 345 344 332 339 332 323 316 318 322 335 355 19 27 22
308 292 277 272 273 287 317 352 353 359 349 13 9 7 1 336 348 348 344 340 340 344 334 338 344 334 337 348 358 353 345 337 335 331 331 332 327 323 323 339 357 13 23 22 22
310 295 281 275 278 303 349 13 5 8 341 7 23 21 21 6 356 345 355 344 339 333 335 329 332 344 348 356 354 340 334 325 326 328 338 335 332 330 337 346 8 28 29 27 31
309 297 289 286 300 356 4 359 334 30 356 2 27 27 19 24 4 356 357 348 342 334 331 331 323 339 355 343 333 325 326 329 328 329 335 334 330 333 343 5 19 23 29 32 25
309 298 296 296 4 348 3 324 321 38 353 0 12 22 27 15 2 0 359 353 339 335 337 333 325 341 336 325 324 322 326 326 325 327 325 330 319 333 351 359 8 16 18 14 8
309 300 308 339 2 355 341 301 8 13 356 5 15 22 29 26 10 0 358 359 354 337 334 323 321 316 316 317 328 325 329 322 322 325 326 326 327 334 345 343 349 358 356 355 359
310 302 327 352 351 358 318 346 9 350 349 356 13 16 19 14 5 356 358 357 360 352 341 328 326 324 325 329 329 331 324 325 326 327 325 331 330 332 332 334 340 344 347 350 351
309 310 7 1 348 330 331 359 348 347 347 346 357 1 7 2 356 352 341 342 348 338 340 330 328 328 327 321 322 325 322 314 320 324 327 336 332 331 333 339 341 344 346 347 345
306 339 0 347 308 334 352 358 343 346 343 349 348 0 356 342 345 340 339 336 334 331 334 336 319 318 311 317 316 320 327 327 320 323 324 328 329 336 341 344 345 347 344 340 336
315 344 350 310 335 351 359 350 352 350 343 338 343 343 350 346 338 338 328 329 325 323 329 329 314 316 323 317 322 326 327 333 330 329 326 330 332 336 340 340 343 340 337 335 335
337 338 333 317 348 352 359 355 358 358 347 343 336 337 333 336 329 329 322 322 324 327 334 329 319 317 319 327 330 328 334 327 329 325 324 328 329 332 337 337 336 332 332 334 335
333 330 331 328 352 347 346 350 359 354 348 344 336 328 332 332 326 324 323 323 321 321 331 329 319 317 323 319 318 320 323 326 328 327 323 323 329 342 338 334 335 330 332 334 336
327 318 328 338 335 342 343 347 355 353 346 346 345 337 334 330 324 323 319 316 315 319 314 319 322 315 320 325 336 340 335 335 326 325 327 325 322 337 343 340 340 339 338 339 339
322 319 331 336 327 333 336 341 348 345 342 339 338 335 338 331 325 327 328 328 322 322 321 321 316 315 322 328 334 334 335 336 332 329 323 323 327 339 338 341 345 344 342 341 338
327 315 324 336 337 333 330 333 335 340 342 334 332 334 331 332 332 328 324 324 326 331 335 328 321 320 318 318 323 322 324 327 329 326 327 323 325 332 336 339 341 341 339 337 336
329 324 328 316 321 325 327 329 329 333 335 333 332 333 336 333 332 328 329 327 326 325 327 321 314 318 320 321 322 322 325 332 331 330 329 334 333 337 340 339 338 338 337 336 334
323 320 323 321 321 319 319 322 323 329 327 323 323 330 334 335 336 328 327 325 323 325 323 324 316 321 319 325 329 329 330 333 340 339 337 338 337 344 344 342 337 336 335 335 332
327 325 321 317 316 313 316 315 318 324 329 327 330 330 328 332 337 332 331 325 321 322 326 328 328 328 324 332 330 331 345 343 340 343 342 338 341 345 340 337 335 335 335 334 333